Regional Weather Roundup
Issued by NWS

Home | Current Version | Previous Version | Graphics & Text | Print | Product List | Glossary On
Versions: 1 2 3 4 5 6 7 8 9 10 11 12 13 14 15 16 17 18 19 20 21 22 23 24 25 26 27 28 29 30 31 32 33 34 35 36 37 38 39 40 41 42 43 44 45 46 47 48 49 50
028
ASUS43 KDTX 291401
RWRMI
MICHIGAN HOURLY REGIONAL WEATHER ROUNDUP
NATIONAL WEATHER SERVICE DETROIT/PONTIAC MI
1000 AM EDT WED MAR 29 2017

NOTE: "FAIR" INDICATES FEW OR NO CLOUDS BELOW 12,000 FEET WITH NO
SIGNIFICANT WEATHER AND/OR OBSTRUCTION TO VISIBILITY.

MIZ047>049-052>055-059>063-066>070-074>076-081>083-291500-
SOUTHEAST LOWER MICHIGAN

CITY           SKY/WX    TMP DP  RH WIND       PRES   REMARKS
ADRIAN         SUNNY     43  33  68 E10       30.29R
ALMA           SUNNY     42  37  83 NW6       30.32S
ANN ARBOR      SUNNY     45  33  63 NE8       30.28R
BAD AXE        SUNNY     39  34  81 N9        30.31R WCI  33
CARO           SUNNY     42  36  78 NW3       30.30S
DETROIT CITY   SUNNY     45  34  65 NE6       30.30R
DETROIT        MOSUNNY   46  34  62 NE7       30.30R
FLINT          SUNNY     42  34  73 N3        30.32R
GROSSE ILE     SUNNY     42  34  74 NE7       30.28R
HILLSDALE      SUNNY     43  32  65 E12       30.25F
HOWELL         SUNNY     40  33  74 NE6       30.30R

CITY           SKY/WX    TMP DP  RH WIND       PRES   REMARKS
JACKSON        SUNNY     43  33  68 E10       30.28R
LAMBERTVILLE   SUNNY     45  35  68 SE7       30.29R
LANSING        SUNNY     42  33  70 NE6       30.31R
LAPEER         FAIR      40  34  79 CALM      30.31R
MASON          SUNNY     41  36  81 NE5       30.30R
MONROE         SUNNY     44  35  71 E5        30.29R
MT. CLEMENS    SUNNY     44  36  74 N6        30.29R
PONTIAC        MOSUNNY   45  33  63 N7        30.28R
PORT HOPE        N/A     37  34  89 NW10      30.29R WCI  30
PORT HURON     SUNNY     43  32  65 N6        30.30R
TRI CITIES     SUNNY     43  34  70 NE5       30.32R
MIDLAND        FAIR      40  33  75 CALM      30.32S
TROY           SUNNY     45  32  60 NE6       30.31S
SAGINAW HB     SUNNY     41  34  75 CALM      30.31S
$$
MIZ043>046-050>051-056>058-064>065-071>073-077>080-291500-
SOUTHWEST LOWER MICHIGAN

CITY           SKY/WX    TMP DP  RH WIND       PRES   REMARKS
BATTLE CREEK   SUNNY     43  34  70 E9        30.27S
BENTON HARBOR  MOSUNNY   45  35  68 E12       30.26S
BIG RAPIDS     SUNNY     40  34  81 CALM      30.30F
COLDWATER      SUNNY     42  35  75 E7        30.26F
FREMONT        FAIR      43  32  64 NE5       30.29F
HOLLAND        MOSUNNY   42  34  73 E9        30.29S
GRAND RAPIDS   PTSUNNY   42  37  82 E7        30.29S
IONIA          FAIR      40  33  77 NE6       30.30R
KALAMAZOO      SUNNY     43  32  65 VRB5      30.28S
LUDINGTON      SUNNY     42  36  81 CALM      30.31F
MARSHALL       SUNNY     42  35  75 NE5       30.26F
MOUNT PLEASANT SUNNY     43  33  69 NE3       30.31S
MUSKEGON       PTSUNNY   41  36  82 NE6       30.30F
SOUTH HAVEN    MOSUNNY   40  36  85 E6        30.27S
$$
MIZ016>042-291500-
NORTHERN LOWER MICHIGAN

CITY           SKY/WX    TMP DP  RH WIND       PRES   REMARKS
ALPENA         SUNNY     39  31  72 NE14      30.36R WCI  31
BEAVER ISLAND  SUNNY     34  32  90 NE5       30.37S WCI  30
BELLAIRE       SUNNY     34  32  94 CALM      30.35F
CADILLAC       SUNNY     42  30  61 NE6       30.29S
CHARLEVOIX     SUNNY     33  33 100 E6        30.39S WCI  27
FRANKFORT      SUNNY     39  31  72 CALM      30.33S
GAYLORD        CLOUDY    34  28  79 NE5       30.33R WCI  30
GRAYLING       SUNNY     36  30  80 NE7       30.32S WCI  30
HARBOR SPRINGS MOSUNNY   33  32  98 E3        30.37R
HOUGHTON LAKE  SUNNY     39  31  72 NE7       30.31S WCI  34
MANISTEE       SUNNY     41  34  76 CALM      30.32S
OSCODA         SUNNY     40  32  71 NE15G21   30.33R WCI  32
PELLSTON       SUNNY     35  28  75 E6        30.37S WCI  30
ROGERS CITY    CLOUDY    36  29  77 NE7       30.38S WCI  30
TRAVERSE CITY  FOG       32  31  96 NE6       30.33F VSB 1/4 WCI  26
$$
MIZ007>008-015-291500-
EASTERN UPPER MICHIGAN

CITY           SKY/WX    TMP DP  RH WIND       PRES   REMARKS
KINROSS        SUNNY     33  24  69 NE8       30.38R WCI  26
MACKINAC ISLAN SUNNY     33  30  90 NE6       30.37S WCI  28
NEWBERRY       SUNNY     31  26  80 NE7       30.37S WCI  25
S. S. MARIE    SUNNY     33  19  56 E6        30.38R WCI  28
MUNISING         N/A     31  28  89 N7        30.39R WCI  24
$$
MIZ004>006-011>014-085-291500-
CENTRAL UPPER MICHIGAN

CITY           SKY/WX    TMP DP  RH WIND       PRES   REMARKS
MANISTIQUE     SUNNY     33  30  88 NE8       30.37S WCI  26
ESCANABA       CLOUDY    35  28  75 NE8       30.38R WCI  29
MENOMINEE        N/A    N/A N/A N/A MISG        N/A
SAWYER-GWINN   MOSUNNY   32  28  86 NE8       30.37R WCI  25
$$
MIZ001>003-009>011-084-291500-
WESTERN UPPER MICHIGAN

CITY           SKY/WX    TMP DP  RH WIND       PRES   REMARKS
IRON MOUNTAIN  CLOUDY    35  25  66 E8        30.33F WCI  29
HOUGHTON       CLOUDY    32  24  72 E12       30.38R WCI  23
COPPER HARBOR    N/A     34  24  67 S6        30.41S WCI  29
IRONWOOD       CLOUDY    36  27  69 E7        30.32R WCI  30
$$

ABBREVIATIONS USED IN REMARKS
   TC - TEMPERATURE IN CELSIUS
  WCI - WIND CHILL INDEX
   HX - HEAT INDEX
  VSB - VISIBILITY





USA.gov is the U.S. government's official web portal to all federal, state and local government web resources and services.